Year,Month,Day,Hour,Minute,Value (Times are PST for temperature in C)
2010,08,15,00,00,20.30
2010,08,15,00,01,20.20
2010,08,15,00,02,20.20
2010,08,15,00,03,20.20
2010,08,15,00,04,20.20
2010,08,15,00,05,20.20
2010,08,15,00,06,20.20
2010,08,15,00,07,20.20
2010,08,15,00,08,20.20
2010,08,15,00,09,20.10
2010,08,15,00,10,20.10
2010,08,15,00,11,20.10
2010,08,15,00,12,20.10
2010,08,15,00,13,20.00
2010,08,15,00,14,19.90
2010,08,15,00,15,19.90
2010,08,15,00,16,19.90
2010,08,15,00,17,19.90
2010,08,15,00,18,19.90
2010,08,15,00,19,19.90
2010,08,15,00,20,19.90
2010,08,15,00,21,19.90
2010,08,15,00,22,19.90
2010,08,15,00,23,19.80
2010,08,15,00,24,19.80
2010,08,15,00,25,19.80
2010,08,15,00,26,19.80
2010,08,15,00,27,19.80
2010,08,15,00,28,19.80
2010,08,15,00,29,19.70
2010,08,15,00,30,19.70
2010,08,15,00,31,19.70
2010,08,15,00,32,19.70
2010,08,15,00,33,19.70
2010,08,15,00,34,19.60
2010,08,15,00,35,19.60
2010,08,15,00,36,19.60
2010,08,15,00,37,19.60
2010,08,15,00,38,19.60
2010,08,15,00,39,19.60
2010,08,15,00,40,19.60
2010,08,15,00,41,19.50
2010,08,15,00,42,19.50
2010,08,15,00,43,19.50
2010,08,15,00,44,19.50
2010,08,15,00,45,19.50
2010,08,15,00,46,19.50
2010,08,15,00,47,19.50
2010,08,15,00,48,19.50
2010,08,15,00,49,19.50
2010,08,15,00,50,19.40
2010,08,15,00,51,19.40
2010,08,15,00,52,19.40
2010,08,15,00,53,19.40
2010,08,15,00,54,19.40
2010,08,15,00,55,19.40
2010,08,15,00,56,19.40
2010,08,15,00,57,19.40
2010,08,15,00,58,19.40
2010,08,15,00,59,19.40
2010,08,15,01,00,19.40
2010,08,15,01,01,19.30
2010,08,15,01,02,19.30
2010,08,15,01,03,19.30
2010,08,15,01,04,19.30
2010,08,15,01,05,19.30
2010,08,15,01,06,19.30
2010,08,15,01,07,19.30
2010,08,15,01,08,19.30
2010,08,15,01,09,19.20
2010,08,15,01,10,19.20
2010,08,15,01,11,19.20
2010,08,15,01,12,19.20
2010,08,15,01,13,19.20
2010,08,15,01,14,19.20
2010,08,15,01,15,19.20
2010,08,15,01,16,19.20
2010,08,15,01,17,19.20
2010,08,15,01,18,19.20
2010,08,15,01,19,19.20
2010,08,15,01,20,19.20
2010,08,15,01,21,19.20
2010,08,15,01,22,19.20
2010,08,15,01,23,19.20
2010,08,15,01,24,19.20
2010,08,15,01,25,19.20
2010,08,15,01,26,19.20
2010,08,15,01,27,19.20
2010,08,15,01,28,19.20
2010,08,15,01,29,19.20
2010,08,15,01,30,19.20
2010,08,15,01,31,19.20
2010,08,15,01,32,19.20
2010,08,15,01,33,19.20
2010,08,15,01,34,19.20
2010,08,15,01,35,19.20
2010,08,15,01,36,19.20
2010,08,15,01,37,19.20
2010,08,15,01,38,19.20
2010,08,15,01,39,19.20
2010,08,15,01,40,19.20
2010,08,15,01,41,19.20
2010,08,15,01,42,19.20
2010,08,15,01,43,19.20
2010,08,15,01,44,19.20
2010,08,15,01,45,19.20
2010,08,15,01,46,19.10
2010,08,15,01,47,19.10
2010,08,15,01,48,19.10
2010,08,15,01,49,19.10
2010,08,15,01,50,19.10
2010,08,15,01,51,19.10
2010,08,15,01,52,19.10
2010,08,15,01,53,19.10
2010,08,15,01,54,19.10
2010,08,15,01,55,19.10
2010,08,15,01,56,19.10
2010,08,15,01,57,19.10
2010,08,15,01,58,19.10
2010,08,15,01,59,19.10
2010,08,15,02,00,19.10
2010,08,15,02,01,19.10
2010,08,15,02,02,19.10
2010,08,15,02,03,19.10
2010,08,15,02,04,19.10
2010,08,15,02,05,19.10
2010,08,15,02,06,19.10
2010,08,15,02,07,19.10
2010,08,15,02,08,19.10
2010,08,15,02,09,19.10
2010,08,15,02,10,19.10
2010,08,15,02,11,19.10
2010,08,15,02,12,19.10
2010,08,15,02,13,19.10
2010,08,15,02,14,19.10
2010,08,15,02,15,19.10
2010,08,15,02,16,19.10
2010,08,15,02,17,19.10
2010,08,15,02,18,19.10
2010,08,15,02,19,19.10
2010,08,15,02,20,19.10
2010,08,15,02,21,19.10
2010,08,15,02,22,19.10
2010,08,15,02,23,19.10
2010,08,15,02,24,19.10
2010,08,15,02,25,19.20
2010,08,15,02,26,19.20
2010,08,15,02,27,19.30
2010,08,15,02,28,19.30
2010,08,15,02,29,19.30
2010,08,15,02,30,19.30
2010,08,15,02,31,19.30
2010,08,15,02,32,19.30
2010,08,15,02,33,19.30
2010,08,15,02,34,19.30
2010,08,15,02,35,19.30
2010,08,15,02,36,19.30
2010,08,15,02,37,19.30
2010,08,15,02,38,19.30
2010,08,15,02,39,19.30
2010,08,15,02,40,19.30
2010,08,15,02,41,19.30
2010,08,15,02,42,19.30
2010,08,15,02,43,19.20
2010,08,15,02,44,19.20
2010,08,15,02,45,19.10
2010,08,15,02,46,19.10
2010,08,15,02,47,19.10
2010,08,15,02,48,19.10
2010,08,15,02,49,18.90
2010,08,15,02,50,18.90
2010,08,15,02,51,18.90
2010,08,15,02,52,18.90
2010,08,15,02,53,18.90
2010,08,15,02,54,18.80
2010,08,15,02,55,18.80
2010,08,15,02,56,18.70
2010,08,15,02,57,18.70
2010,08,15,02,58,18.70
2010,08,15,02,59,18.70
2010,08,15,03,00,18.70
2010,08,15,03,01,18.70
2010,08,15,03,02,18.60
2010,08,15,03,03,18.60
2010,08,15,03,04,18.60
2010,08,15,03,05,18.60
2010,08,15,03,06,18.60
2010,08,15,03,07,18.50
2010,08,15,03,08,18.50
2010,08,15,03,09,18.50
2010,08,15,03,10,18.40
2010,08,15,03,11,18.40
2010,08,15,03,12,18.40
2010,08,15,03,13,18.30
2010,08,15,03,14,18.30
2010,08,15,03,15,18.30
2010,08,15,03,16,18.30
2010,08,15,03,17,18.30
2010,08,15,03,18,18.30
2010,08,15,03,19,18.30
2010,08,15,03,20,18.30
2010,08,15,03,21,18.30
2010,08,15,03,22,18.30
2010,08,15,03,23,18.30
2010,08,15,03,24,18.20
2010,08,15,03,25,18.20
2010,08,15,03,26,18.20
2010,08,15,03,27,18.20
2010,08,15,03,28,18.20
2010,08,15,03,29,18.20
2010,08,15,03,30,18.20
2010,08,15,03,31,18.10
2010,08,15,03,32,18.10
2010,08,15,03,33,18.10
2010,08,15,03,34,18.10
2010,08,15,03,35,18.10
2010,08,15,03,36,18.10
2010,08,15,03,37,18.00
2010,08,15,03,38,17.90
2010,08,15,03,39,17.90
2010,08,15,03,40,17.90
2010,08,15,03,41,17.90
2010,08,15,03,42,17.90
2010,08,15,03,43,17.90
2010,08,15,03,44,17.90
2010,08,15,03,45,17.80
2010,08,15,03,46,17.80
2010,08,15,03,47,17.80
2010,08,15,03,48,17.80
2010,08,15,03,49,17.70
2010,08,15,03,50,17.70
2010,08,15,03,51,17.70
2010,08,15,03,52,17.70
2010,08,15,03,53,17.70
2010,08,15,03,54,17.70
2010,08,15,03,55,17.60
2010,08,15,03,56,17.60
2010,08,15,03,57,17.60
2010,08,15,03,58,17.60
2010,08,15,03,59,17.60
2010,08,15,04,00,17.60
2010,08,15,04,01,17.60
2010,08,15,04,02,17.60
2010,08,15,04,03,17.60
2010,08,15,04,04,17.60
2010,08,15,04,05,17.60
2010,08,15,04,06,17.50
2010,08,15,04,07,17.50
2010,08,15,04,08,17.50
2010,08,15,04,09,17.50
2010,08,15,04,10,17.50
2010,08,15,04,11,17.50
2010,08,15,04,12,17.50
2010,08,15,04,13,17.50
2010,08,15,04,14,17.50
2010,08,15,04,15,17.50
2010,08,15,04,16,17.50
2010,08,15,04,17,17.50
2010,08,15,04,18,17.50
2010,08,15,04,19,17.50
2010,08,15,04,20,17.50
2010,08,15,04,21,17.40
2010,08,15,04,22,17.40
2010,08,15,04,23,17.40
2010,08,15,04,24,17.40
2010,08,15,04,25,17.40
2010,08,15,04,26,17.40
2010,08,15,04,27,17.40
2010,08,15,04,28,17.40
2010,08,15,04,29,17.30
2010,08,15,04,30,17.30
2010,08,15,04,31,17.30
2010,08,15,04,32,17.30
2010,08,15,04,33,17.40
2010,08,15,04,34,17.30
2010,08,15,04,35,17.30
2010,08,15,04,36,17.30
2010,08,15,04,37,17.30
2010,08,15,04,38,17.30
2010,08,15,04,39,17.30
2010,08,15,04,40,17.30
2010,08,15,04,41,17.30
2010,08,15,04,42,17.30
2010,08,15,04,43,17.40
2010,08,15,04,44,17.40
2010,08,15,04,45,17.50
2010,08,15,04,46,17.60
2010,08,15,04,47,17.70
2010,08,15,04,48,17.80
2010,08,15,04,49,17.90
2010,08,15,04,50,17.90
2010,08,15,04,51,18.10
2010,08,15,04,52,18.10
2010,08,15,04,53,18.20
2010,08,15,04,54,18.20
2010,08,15,04,55,18.30
2010,08,15,04,56,18.30
2010,08,15,04,57,18.40
2010,08,15,04,58,18.40
2010,08,15,04,59,18.50
2010,08,15,05,00,18.50
2010,08,15,05,01,18.60
2010,08,15,05,02,18.60
2010,08,15,05,03,18.60
2010,08,15,05,04,18.60
2010,08,15,05,05,18.60
2010,08,15,05,06,18.60
2010,08,15,05,07,18.70
2010,08,15,05,08,18.70
2010,08,15,05,09,18.70
2010,08,15,05,10,18.70
2010,08,15,05,11,18.70
2010,08,15,05,12,18.70
2010,08,15,05,13,18.70
2010,08,15,05,14,18.70
2010,08,15,05,15,18.70
2010,08,15,05,16,18.70
2010,08,15,05,17,18.70
2010,08,15,05,18,18.70
2010,08,15,05,19,18.70
2010,08,15,05,20,18.80
2010,08,15,05,21,18.80
2010,08,15,05,22,18.80
2010,08,15,05,23,18.90
2010,08,15,05,24,18.90
2010,08,15,05,25,18.90
2010,08,15,05,26,18.80
2010,08,15,05,27,18.80
2010,08,15,05,28,18.80
2010,08,15,05,29,18.80
2010,08,15,05,30,18.70
2010,08,15,05,31,18.70
2010,08,15,05,32,18.70
2010,08,15,05,33,18.70
2010,08,15,05,34,18.70
2010,08,15,05,35,18.60
2010,08,15,05,36,18.60
2010,08,15,05,37,18.60
2010,08,15,05,38,18.60
2010,08,15,05,39,18.60
2010,08,15,05,40,18.60
2010,08,15,05,41,18.50
2010,08,15,05,42,18.50
2010,08,15,05,43,18.50
2010,08,15,05,44,18.50
2010,08,15,05,45,18.40
2010,08,15,05,46,18.40
2010,08,15,05,47,18.40
2010,08,15,05,48,18.40
2010,08,15,05,49,18.40
2010,08,15,05,50,18.40
2010,08,15,05,51,18.30
2010,08,15,05,52,18.30
2010,08,15,05,53,18.30
2010,08,15,05,54,18.30
2010,08,15,05,55,18.30
2010,08,15,05,56,18.30
2010,08,15,05,57,18.30
2010,08,15,05,58,18.30
2010,08,15,05,59,18.30
2010,08,15,06,00,18.30
2010,08,15,06,01,18.30
2010,08,15,06,02,18.30
2010,08,15,06,03,18.20
2010,08,15,06,04,18.20
2010,08,15,06,05,18.20
2010,08,15,06,06,18.20
2010,08,15,06,07,18.20
2010,08,15,06,08,18.20
2010,08,15,06,09,18.20
2010,08,15,06,10,18.20
2010,08,15,06,11,18.10
2010,08,15,06,12,18.10
2010,08,15,06,13,18.10
2010,08,15,06,14,18.10
2010,08,15,06,15,18.00
2010,08,15,06,16,17.90
2010,08,15,06,17,17.90
2010,08,15,06,18,17.90
2010,08,15,06,19,17.90
2010,08,15,06,20,17.90
2010,08,15,06,21,17.80
2010,08,15,06,22,17.80
2010,08,15,06,23,17.80
2010,08,15,06,24,17.80
2010,08,15,06,25,17.80
2010,08,15,06,26,17.80
2010,08,15,06,27,17.80
2010,08,15,06,28,17.80
2010,08,15,06,29,17.80
2010,08,15,06,30,17.80
2010,08,15,06,31,17.90
2010,08,15,06,32,18.00
2010,08,15,06,33,18.10
2010,08,15,06,34,18.20
2010,08,15,06,35,18.40
2010,08,15,06,36,18.50
2010,08,15,06,37,18.60
2010,08,15,06,38,18.70
2010,08,15,06,39,18.80
2010,08,15,06,40,18.90
2010,08,15,06,41,18.90
2010,08,15,06,42,19.00
2010,08,15,06,43,19.10
2010,08,15,06,44,19.10
2010,08,15,06,45,19.10
2010,08,15,06,46,19.10
2010,08,15,06,47,19.20
2010,08,15,06,48,19.20
2010,08,15,06,49,19.20
2010,08,15,06,50,19.20
2010,08,15,06,51,19.20
2010,08,15,06,52,19.20
2010,08,15,06,53,19.20
2010,08,15,06,54,19.20
2010,08,15,06,55,19.20
2010,08,15,06,56,19.20
2010,08,15,06,57,19.30
2010,08,15,06,58,19.30
2010,08,15,06,59,19.30
2010,08,15,07,00,19.30
2010,08,15,07,01,19.30
2010,08,15,07,02,19.30
2010,08,15,07,03,19.30
2010,08,15,07,04,19.30
2010,08,15,07,05,19.30
2010,08,15,07,06,19.30
2010,08,15,07,07,19.30
2010,08,15,07,08,19.30
2010,08,15,07,09,19.40
2010,08,15,07,10,19.40
2010,08,15,07,11,19.40
2010,08,15,07,12,19.50
2010,08,15,07,13,19.60
2010,08,15,07,14,19.60
2010,08,15,07,15,19.70
2010,08,15,07,16,19.80
2010,08,15,07,17,19.80
2010,08,15,07,18,19.90
2010,08,15,07,19,19.90
2010,08,15,07,20,19.90
2010,08,15,07,21,19.90
2010,08,15,07,22,19.90
2010,08,15,07,23,19.90
2010,08,15,07,24,19.90
2010,08,15,07,25,19.90
2010,08,15,07,26,19.90
2010,08,15,07,27,19.90
2010,08,15,07,28,19.90
2010,08,15,07,29,19.90
2010,08,15,07,30,19.90
2010,08,15,07,31,19.90
2010,08,15,07,32,19.90
2010,08,15,07,33,19.90
2010,08,15,07,34,19.90
2010,08,15,07,35,19.90
2010,08,15,07,36,19.90
2010,08,15,07,37,19.90
2010,08,15,07,38,19.90
2010,08,15,07,39,19.90
2010,08,15,07,40,19.90
2010,08,15,07,41,19.90
2010,08,15,07,42,19.90
2010,08,15,07,43,19.90
2010,08,15,07,44,19.90
2010,08,15,07,45,19.90
2010,08,15,07,46,19.90
2010,08,15,07,47,19.90
2010,08,15,07,48,19.90
2010,08,15,07,49,19.80
2010,08,15,07,50,19.80
2010,08,15,07,51,19.80
2010,08,15,07,52,19.80
2010,08,15,07,53,19.70
2010,08,15,07,54,19.70
2010,08,15,07,55,19.70
2010,08,15,07,56,19.80
2010,08,15,07,57,19.80
2010,08,15,07,58,19.80
2010,08,15,07,59,19.90
2010,08,15,08,00,19.90
2010,08,15,08,01,20.00
2010,08,15,08,02,20.10
2010,08,15,08,03,20.20
2010,08,15,08,04,20.20
2010,08,15,08,05,20.30
2010,08,15,08,06,20.50
2010,08,15,08,07,20.60
2010,08,15,08,08,20.70
2010,08,15,08,09,20.90
2010,08,15,08,10,21.10
2010,08,15,08,11,21.30
2010,08,15,08,12,21.40
2010,08,15,08,13,21.60
2010,08,15,08,14,21.60
2010,08,15,08,15,21.70
2010,08,15,08,16,21.70
2010,08,15,08,17,21.70
2010,08,15,08,18,21.70
2010,08,15,08,19,21.70
2010,08,15,08,20,21.70
2010,08,15,08,21,21.60
2010,08,15,08,22,21.60
2010,08,15,08,23,21.60
2010,08,15,08,24,21.60
2010,08,15,08,25,21.60
2010,08,15,08,26,21.60
2010,08,15,08,27,21.60
2010,08,15,08,28,21.60
2010,08,15,08,29,21.70
2010,08,15,08,30,21.70
2010,08,15,08,31,21.70
2010,08,15,08,32,21.70
2010,08,15,08,33,21.70
2010,08,15,08,34,21.70
2010,08,15,08,35,21.80
2010,08,15,08,36,21.80
2010,08,15,08,37,21.80
2010,08,15,08,38,21.80
2010,08,15,08,39,21.80
2010,08,15,08,40,21.90
2010,08,15,08,41,21.90
2010,08,15,08,42,22.00
2010,08,15,08,43,22.00
2010,08,15,08,44,22.10
2010,08,15,08,45,22.10
2010,08,15,08,46,22.10
2010,08,15,08,47,22.20
2010,08,15,08,48,22.20
2010,08,15,08,49,22.20
2010,08,15,08,50,22.20
2010,08,15,08,51,22.20
2010,08,15,08,52,22.30
2010,08,15,08,53,22.30
2010,08,15,08,54,22.40
2010,08,15,08,55,22.40
2010,08,15,08,56,22.50
2010,08,15,08,57,22.50
2010,08,15,08,58,22.50
2010,08,15,08,59,22.50
2010,08,15,09,00,22.60
2010,08,15,09,01,22.60
2010,08,15,09,02,22.60
2010,08,15,09,03,22.60
2010,08,15,09,04,22.70
2010,08,15,09,05,22.70
2010,08,15,09,06,22.70
2010,08,15,09,07,22.80
2010,08,15,09,08,22.80
2010,08,15,09,09,22.90
2010,08,15,09,10,22.90
2010,08,15,09,11,23.00
2010,08,15,09,12,23.10
2010,08,15,09,13,23.10
2010,08,15,09,14,23.20
2010,08,15,09,15,23.30
2010,08,15,09,16,23.30
2010,08,15,09,17,23.30
2010,08,15,09,18,23.40
2010,08,15,09,19,23.40
2010,08,15,09,20,23.50
2010,08,15,09,21,23.60
2010,08,15,09,22,23.60
2010,08,15,09,23,23.60
2010,08,15,09,24,23.60
2010,08,15,09,25,23.60
2010,08,15,09,26,23.60
2010,08,15,09,27,23.70
2010,08,15,09,28,23.70
2010,08,15,09,29,23.70
2010,08,15,09,30,23.70
2010,08,15,09,31,23.70
2010,08,15,09,32,23.70
2010,08,15,09,33,23.70
2010,08,15,09,34,23.60
2010,08,15,09,35,23.60
2010,08,15,09,36,23.50
2010,08,15,09,37,23.40
2010,08,15,09,38,23.50
2010,08,15,09,39,23.60
2010,08,15,09,40,23.60
2010,08,15,09,41,23.60
2010,08,15,09,42,23.60
2010,08,15,09,43,23.70
2010,08,15,09,44,23.70
2010,08,15,09,45,23.80
2010,08,15,09,46,23.80
2010,08,15,09,47,23.80
2010,08,15,09,48,23.80
2010,08,15,09,49,23.80
2010,08,15,09,50,23.80
2010,08,15,09,51,23.90
2010,08,15,09,52,23.90
2010,08,15,09,53,23.90
2010,08,15,09,54,23.80
2010,08,15,09,55,23.80
2010,08,15,09,56,23.90
2010,08,15,09,57,24.00
2010,08,15,09,58,24.10
2010,08,15,09,59,24.10
2010,08,15,10,00,24.10
2010,08,15,10,01,24.10
2010,08,15,10,02,24.10
2010,08,15,10,03,24.10
2010,08,15,10,04,24.00
2010,08,15,10,05,23.90
2010,08,15,10,06,23.90
2010,08,15,10,07,24.00
2010,08,15,10,08,24.10
2010,08,15,10,09,24.10
2010,08,15,10,10,24.10
2010,08,15,10,11,24.10
2010,08,15,10,12,24.20
2010,08,15,10,13,24.20
2010,08,15,10,14,24.30
2010,08,15,10,15,24.30
2010,08,15,10,16,24.40
2010,08,15,10,17,24.50
2010,08,15,10,18,24.50
2010,08,15,10,19,24.50
2010,08,15,10,20,24.60
2010,08,15,10,21,24.60
2010,08,15,10,22,24.60
2010,08,15,10,23,24.60
2010,08,15,10,24,24.60
2010,08,15,10,25,24.60
2010,08,15,10,26,24.70
2010,08,15,10,27,24.60
2010,08,15,10,28,24.60
2010,08,15,10,29,24.60
2010,08,15,10,30,24.70
2010,08,15,10,31,24.80
2010,08,15,10,32,24.90
2010,08,15,10,33,24.90
2010,08,15,10,34,24.90
2010,08,15,10,35,25.00
2010,08,15,10,36,25.10
2010,08,15,10,37,25.10
2010,08,15,10,38,25.20
2010,08,15,10,39,25.30
2010,08,15,10,40,25.40
2010,08,15,10,41,25.40
2010,08,15,10,42,25.40
2010,08,15,10,43,25.50
2010,08,15,10,44,25.50
2010,08,15,10,45,25.50
2010,08,15,10,46,25.60
2010,08,15,10,47,25.70
2010,08,15,10,48,25.70
2010,08,15,10,49,25.80
2010,08,15,10,50,25.70
2010,08,15,10,51,25.70
2010,08,15,10,52,25.80
2010,08,15,10,53,25.80
2010,08,15,10,54,25.80
2010,08,15,10,55,25.90
2010,08,15,10,56,25.90
2010,08,15,10,57,25.90
2010,08,15,10,58,25.90
2010,08,15,10,59,25.90
2010,08,15,11,00,25.90
2010,08,15,11,01,25.90
2010,08,15,11,02,26.00
2010,08,15,11,03,26.00
2010,08,15,11,04,26.00
2010,08,15,11,05,26.10
2010,08,15,11,06,26.20
2010,08,15,11,07,26.30
2010,08,15,11,08,26.30
2010,08,15,11,09,26.30
2010,08,15,11,10,26.30
2010,08,15,11,11,26.30
2010,08,15,11,12,26.20
2010,08,15,11,13,26.20
2010,08,15,11,14,26.30
2010,08,15,11,15,26.40
2010,08,15,11,16,26.50
2010,08,15,11,17,26.60
2010,08,15,11,18,26.70
2010,08,15,11,19,26.80
2010,08,15,11,20,26.90
2010,08,15,11,21,26.90
2010,08,15,11,22,27.00
2010,08,15,11,23,27.10
2010,08,15,11,24,27.10
2010,08,15,11,25,27.10
2010,08,15,11,26,27.20
2010,08,15,11,27,27.20
2010,08,15,11,28,27.20
2010,08,15,11,29,27.10
2010,08,15,11,30,27.20
2010,08,15,11,31,27.20
2010,08,15,11,32,27.20
2010,08,15,11,33,27.20
2010,08,15,11,34,27.20
2010,08,15,11,35,27.30
2010,08,15,11,36,27.20
2010,08,15,11,37,27.20
2010,08,15,11,38,27.20
2010,08,15,11,39,27.20
2010,08,15,11,40,27.10
2010,08,15,11,41,27.10
2010,08,15,11,42,27.10
2010,08,15,11,43,27.10
2010,08,15,11,44,27.20
2010,08,15,11,45,27.20
2010,08,15,11,46,27.30
2010,08,15,11,47,27.30
2010,08,15,11,48,27.30
2010,08,15,11,49,27.30
2010,08,15,11,50,27.30
2010,08,15,11,51,27.30
2010,08,15,11,52,27.30
2010,08,15,11,53,27.30
2010,08,15,11,54,27.30
2010,08,15,11,55,27.30
2010,08,15,11,56,27.30
2010,08,15,11,57,27.30
2010,08,15,11,58,27.30
2010,08,15,11,59,27.30
2010,08,15,12,00,27.30
2010,08,15,12,01,27.30
2010,08,15,12,02,27.40
2010,08,15,12,03,27.40
2010,08,15,12,04,27.50
2010,08,15,12,05,27.60
2010,08,15,12,06,27.60
2010,08,15,12,07,27.60
2010,08,15,12,08,27.60
2010,08,15,12,09,27.60
2010,08,15,12,10,27.60
2010,08,15,12,11,27.70
2010,08,15,12,12,27.70
2010,08,15,12,13,27.80
2010,08,15,12,14,27.90
2010,08,15,12,15,27.90
2010,08,15,12,16,28.00
2010,08,15,12,17,28.00
2010,08,15,12,18,28.00
2010,08,15,12,19,27.90
2010,08,15,12,20,27.90
2010,08,15,12,21,28.00
2010,08,15,12,22,28.00
2010,08,15,12,23,28.10
2010,08,15,12,24,28.20
2010,08,15,12,25,28.20
2010,08,15,12,26,28.30
2010,08,15,12,27,28.30
2010,08,15,12,28,28.40
2010,08,15,12,29,28.40
2010,08,15,12,30,28.60
2010,08,15,12,31,28.60
2010,08,15,12,32,28.70
2010,08,15,12,33,28.80
2010,08,15,12,34,28.80
2010,08,15,12,35,28.80
2010,08,15,12,36,28.90
2010,08,15,12,37,28.90
2010,08,15,12,38,28.90
2010,08,15,12,39,29.00
2010,08,15,12,40,29.10
2010,08,15,12,41,29.20
2010,08,15,12,42,29.20
2010,08,15,12,43,29.10
2010,08,15,12,44,29.10
2010,08,15,12,45,29.10
2010,08,15,12,46,29.10
2010,08,15,12,47,29.00
2010,08,15,12,48,28.90
2010,08,15,12,49,28.80
2010,08,15,12,50,28.80
2010,08,15,12,51,28.80
2010,08,15,12,52,28.80
2010,08,15,12,53,28.80
2010,08,15,12,54,28.90
2010,08,15,12,55,28.90
2010,08,15,12,56,28.90
2010,08,15,12,57,28.90
2010,08,15,12,58,28.80
2010,08,15,12,59,28.70
2010,08,15,13,00,28.70
2010,08,15,13,01,28.70
2010,08,15,13,02,28.70
2010,08,15,13,03,28.60
2010,08,15,13,04,28.70
2010,08,15,13,05,28.80
2010,08,15,13,06,28.80
2010,08,15,13,07,28.80
2010,08,15,13,08,28.90
2010,08,15,13,09,28.90
2010,08,15,13,10,28.90
2010,08,15,13,11,28.90
2010,08,15,13,12,28.90
2010,08,15,13,13,29.00
2010,08,15,13,14,29.10
2010,08,15,13,15,29.20
2010,08,15,13,16,29.20
2010,08,15,13,17,29.10
2010,08,15,13,18,29.10
2010,08,15,13,19,29.10
2010,08,15,13,20,29.20
2010,08,15,13,21,29.20
2010,08,15,13,22,29.10
2010,08,15,13,23,29.10
2010,08,15,13,24,29.10
2010,08,15,13,25,29.10
2010,08,15,13,26,29.20
2010,08,15,13,27,29.30
2010,08,15,13,28,29.40
2010,08,15,13,29,29.40
2010,08,15,13,30,29.50
2010,08,15,13,31,29.50
2010,08,15,13,32,29.50
2010,08,15,13,33,29.60
2010,08,15,13,34,29.70
2010,08,15,13,35,29.90
2010,08,15,13,36,30.00
2010,08,15,13,37,30.10
2010,08,15,13,38,30.20
2010,08,15,13,39,30.20
2010,08,15,13,40,30.30
2010,08,15,13,41,30.20
2010,08,15,13,42,30.20
2010,08,15,13,43,30.20
2010,08,15,13,44,30.20
2010,08,15,13,45,30.30
2010,08,15,13,46,30.30
2010,08,15,13,47,30.30
2010,08,15,13,48,30.30
2010,08,15,13,49,30.30
2010,08,15,13,50,30.40
2010,08,15,13,51,30.40
2010,08,15,13,52,30.40
2010,08,15,13,53,30.50
2010,08,15,13,54,30.60
2010,08,15,13,55,30.60
2010,08,15,13,56,30.60
2010,08,15,13,57,30.60
2010,08,15,13,58,30.60
2010,08,15,13,59,30.70
2010,08,15,14,00,30.70
2010,08,15,14,01,30.70
2010,08,15,14,02,30.70
2010,08,15,14,03,30.60
2010,08,15,14,04,30.50
2010,08,15,14,05,30.40
2010,08,15,14,06,30.30
2010,08,15,14,07,30.20
2010,08,15,14,08,30.20
2010,08,15,14,09,30.20
2010,08,15,14,10,30.20
2010,08,15,14,11,30.30
2010,08,15,14,12,30.30
2010,08,15,14,13,30.40
2010,08,15,14,14,30.30
2010,08,15,14,15,30.30
2010,08,15,14,16,30.40
2010,08,15,14,17,30.60
2010,08,15,14,18,30.70
2010,08,15,14,19,30.80
2010,08,15,14,20,30.80
2010,08,15,14,21,30.90
2010,08,15,14,22,30.70
2010,08,15,14,23,30.60
2010,08,15,14,24,30.40
2010,08,15,14,25,30.30
2010,08,15,14,26,30.40
2010,08,15,14,27,30.40
2010,08,15,14,28,30.60
2010,08,15,14,29,30.60
2010,08,15,14,30,30.70
2010,08,15,14,31,30.70
2010,08,15,14,32,30.60
2010,08,15,14,33,30.70
2010,08,15,14,34,30.70
2010,08,15,14,35,30.70
2010,08,15,14,36,30.70
2010,08,15,14,37,30.70
2010,08,15,14,38,30.70
2010,08,15,14,39,30.60
2010,08,15,14,40,30.60
2010,08,15,14,41,30.70
2010,08,15,14,42,30.80
2010,08,15,14,43,30.70
2010,08,15,14,44,30.70
2010,08,15,14,45,30.70
2010,08,15,14,46,30.60
2010,08,15,14,47,30.70
2010,08,15,14,48,30.70
2010,08,15,14,49,30.90
2010,08,15,14,50,31.00
2010,08,15,14,51,31.00
2010,08,15,14,52,31.00
2010,08,15,14,53,30.90
2010,08,15,14,54,30.90
2010,08,15,14,55,30.90
2010,08,15,14,56,31.00
2010,08,15,14,57,31.10
2010,08,15,14,58,31.10
2010,08,15,14,59,31.20
2010,08,15,15,00,31.20
2010,08,15,15,01,31.30
2010,08,15,15,02,31.40
2010,08,15,15,03,31.50
2010,08,15,15,04,31.60
2010,08,15,15,05,31.70
2010,08,15,15,06,31.70
2010,08,15,15,07,31.70
2010,08,15,15,08,31.70
2010,08,15,15,09,31.70
2010,08,15,15,10,31.70
2010,08,15,15,11,31.70
2010,08,15,15,12,31.70
2010,08,15,15,13,31.70
2010,08,15,15,14,31.60
2010,08,15,15,15,31.60
2010,08,15,15,16,31.60
2010,08,15,15,17,31.60
2010,08,15,15,18,31.60
2010,08,15,15,19,31.70
2010,08,15,15,20,31.70
2010,08,15,15,21,31.70
2010,08,15,15,22,31.70
2010,08,15,15,23,31.80
2010,08,15,15,24,31.80
2010,08,15,15,25,31.80
2010,08,15,15,26,31.80
2010,08,15,15,27,31.90
2010,08,15,15,28,31.90
2010,08,15,15,29,31.90
2010,08,15,15,30,31.90
2010,08,15,15,31,31.90
2010,08,15,15,32,31.90
2010,08,15,15,33,31.90
2010,08,15,15,34,31.90
2010,08,15,15,35,31.70
2010,08,15,15,36,31.60
2010,08,15,15,37,31.60
2010,08,15,15,38,31.60
2010,08,15,15,39,31.60
2010,08,15,15,40,31.60
2010,08,15,15,41,31.60
2010,08,15,15,42,31.70
2010,08,15,15,43,31.70
2010,08,15,15,44,31.60
2010,08,15,15,45,31.60
2010,08,15,15,46,31.60
2010,08,15,15,47,31.70
2010,08,15,15,48,31.70
2010,08,15,15,49,31.80
2010,08,15,15,50,31.80
2010,08,15,15,51,31.80
2010,08,15,15,52,31.90
2010,08,15,15,53,31.90
2010,08,15,15,54,31.90
2010,08,15,15,55,31.90
2010,08,15,15,56,31.90
2010,08,15,15,57,31.90
2010,08,15,15,58,31.90
2010,08,15,15,59,32.10
2010,08,15,16,00,32.10
2010,08,15,16,01,32.20
2010,08,15,16,02,32.30
2010,08,15,16,03,32.30
2010,08,15,16,04,32.40
2010,08,15,16,05,32.40
2010,08,15,16,06,32.50
2010,08,15,16,07,32.50
2010,08,15,16,08,32.50
2010,08,15,16,09,32.30
2010,08,15,16,10,32.30
2010,08,15,16,11,32.30
2010,08,15,16,12,32.30
2010,08,15,16,13,32.40
2010,08,15,16,14,32.40
2010,08,15,16,15,32.30
2010,08,15,16,16,32.40
2010,08,15,16,17,32.40
2010,08,15,16,18,32.40
2010,08,15,16,19,32.40
2010,08,15,16,20,32.40
2010,08,15,16,21,32.40
2010,08,15,16,22,32.50
2010,08,15,16,23,32.50
2010,08,15,16,24,32.50
2010,08,15,16,25,32.60
2010,08,15,16,26,32.60
2010,08,15,16,27,32.50
2010,08,15,16,28,32.50
2010,08,15,16,29,32.50
2010,08,15,16,30,32.50
2010,08,15,16,31,32.50
2010,08,15,16,32,32.60
2010,08,15,16,33,32.60
2010,08,15,16,34,32.80
2010,08,15,16,35,32.80
2010,08,15,16,36,32.80
2010,08,15,16,37,32.90
2010,08,15,16,38,32.90
2010,08,15,16,39,32.90
2010,08,15,16,40,33.00
2010,08,15,16,41,33.00
2010,08,15,16,42,33.00
2010,08,15,16,43,33.10
2010,08,15,16,44,33.10
2010,08,15,16,45,33.00
2010,08,15,16,46,33.00
2010,08,15,16,47,33.00
2010,08,15,16,48,33.00
2010,08,15,16,49,33.10
2010,08,15,16,50,33.00
2010,08,15,16,51,33.00
2010,08,15,16,52,33.00
2010,08,15,16,53,33.10
2010,08,15,16,54,33.10
2010,08,15,16,55,33.10
2010,08,15,16,56,33.10
2010,08,15,16,57,33.10
2010,08,15,16,58,33.10
2010,08,15,16,59,33.20
2010,08,15,17,00,33.20
2010,08,15,17,01,33.10
2010,08,15,17,02,33.10
2010,08,15,17,03,33.00
2010,08,15,17,04,33.00
2010,08,15,17,05,33.00
2010,08,15,17,06,33.10
2010,08,15,17,07,33.10
2010,08,15,17,08,33.20
2010,08,15,17,09,33.40
2010,08,15,17,10,33.40
2010,08,15,17,11,33.50
2010,08,15,17,12,33.50
2010,08,15,17,13,33.60
2010,08,15,17,14,33.60
2010,08,15,17,15,33.60
2010,08,15,17,16,33.60
2010,08,15,17,17,33.60
2010,08,15,17,18,33.50
2010,08,15,17,19,33.50